Regional Weather Roundup
Issued by NWS

Home | Current Version | Previous Version | Text Only | Print | Product List | Glossary On
Versions: 1 2 3 4 5 6 7 8 9 10 11 12 13 14 15 16 17 18 19 20 21 22 23 24 25 26 27 28 29 30 31 32 33 34 35 36 37 38 39 40 41 42 43 44 45 46 47 48 49 50
000
ASUS43 KMKX 162011
RWRWI

WISCONSIN REGIONAL WEATHER ROUNDUP
NATIONAL WEATHER SERVICE MILWAUKEE/SULLIVAN WI
300 PM CDT WED APR 16 2014

NOTE: "FAIR" INDICATES FEW OR NO CLOUDS BELOW 12,000 FEET WITH NO
SIGNIFICANT WEATHER AND/OR OBSTRUCTIONS TO VISIBILITY.

WIZ001-002-006>008-014>016-023>028-162100-
NORTHWEST WISCONSIN

CITY           SKY/WX    TMP DP  RH WIND       PRES   REMARKS
SUPERIOR ARPT  SNOW      27  26  94 NE15G23   30.14R VSB 1/2 WCI  16
ASHLAND        SNOW      27  25  92 NE20      30.14F VSB 1/4 WCI  13
HAYWARD        SNOW      29  25  85 E9        30.05F VSB 1/2 WCI  20
SIREN          SNOW      30  28  94 E8G16     30.01F VSB 1/2 WCI  22
RICE LAKE      CLOUDY    34  27  74 E10       29.99F WCI  26
LADYSMITH      CLOUDY    35  28  75 E12       30.04F WCI  26
EAU CLAIRE     CLOUDY    47  27  45 E21G28    29.93F
MENOMONIE      CLOUDY    41  31  67 NE10      29.92F
NEW RICHMOND   CLOUDY    35  28  76 E15G21    29.92F WCI  25
OSCEOLA        LGT SNOW  34  28  80 E13G21    29.96S WCI  25
$$

WIZ003>005-009-010-017-018-162100-
NORTH CENTRAL WISCONSIN

CITY           SKY/WX    TMP DP  RH WIND       PRES   REMARKS
WOODRUFF       SNOW      32  27  81 E13G23    30.09F VSB 1/2 WCI  22
RHINELANDER    CLOUDY    29  24  82 E21       30.10F WCI  16
EAGLE RIVER    FLURRIES  29  23  76 SE15G21   30.12S WCI  18
LAND O LAKES   LGT SNOW  28  25  89 SE9       30.13F WCI  19
PHILLIPS       CLOUDY    30  25  80 E10       30.06S WCI  21
TOMAHAWK       CLOUDY    31  26  80 E9G17     30.07F WCI  23
MEDFORD        CLOUDY    34  26  73 SE15G23   30.00F WCI  24
MERRILL        CLOUDY    33  28  80 CALM      30.08F
$$

WIZ029-030-035-036-043>047-162100-
CENTRAL WISCONSIN

CITY           SKY/WX    TMP DP  RH WIND       PRES   REMARKS
WAUSAU         CLOUDY    35  28  75 E17G28    30.06F WCI  25
MOSINEE        SUNNY     37  27  65 E15G23    30.07F WCI  28
MARSHFIELD     CLOUDY    41  28  60 SE15      30.01F
STEVENS POINT  CLOUDY    39  26  60 SE9G17    30.08S WCI  32
WAUPACA        CLOUDY    45  30  57 E22       30.12F
WAUTOMA        CLOUDY    47  29  50 SE16G32   30.08F
WISC RAPIDS    CLOUDY    43  27  53 SE13G22   30.05F
CAMP DOUGLAS   CLOUDY    48  28  46 SE16G28   30.00S
$$

WIZ011>013-019>022-031-037>040-048>050-162100-
NORTHEAST WISCONSIN

CITY           SKY/WX    TMP DP  RH WIND       PRES   REMARKS
ANTIGO         CLOUDY    30  28  90 E20G26    30.11F WCI  18
STURGEON BAY   CLOUDY    36  25  64 SE14      30.26F WCI  27
GREEN BAY      CLOUDY    38  28  67 SE23G33   30.20F WCI  27
MANITOWOC      CLOUDY    36  27  69 SE18G31   30.23F WCI  26
APPLETON       PTSUNNY   43  28  56 SE21G28   30.15
CLINTONVILLE   CLOUDY    41  28  60 SE15G24   30.15F
OSHKOSH        CLOUDY    44  31  60 SE22G28   30.13F
$$

WIZ032>034-041-042-053>061-162100-
SOUTHWEST WISCONSIN

CITY           SKY/WX    TMP DP  RH WIND       PRES   REMARKS
LA CROSSE      CLOUDY    54  27  35 S23G33    29.91F
SPARTA         CLOUDY    51  26  37 S15G26    29.97S
VIROQUA        FAIR      51  31  47 SE18G29   29.94F
BOSCOBEL         N/A     56  26  31 S15G24    29.99F
PRAIRIE DU CHI PTSUNNY   56  25  30 SE20G30   29.94F
PLATTEVILLE    FAIR      53  31  42 SE26G33   30.01F
$$

WIZ056-057-062-063-064-067-068-162100-
SOUTH CENTRAL WISCONSIN

CITY           SKY/WX    TMP DP  RH WIND       PRES   REMARKS
BARABOO/DELLS  PTSUNNY   48  28  44 SE25G32   30.04F
LONE ROCK      PTSUNNY   52  30  43 S20G38    30.02F
WATERTOWN      PTSUNNY   49  28  45 S18G31    30.11F
MADISON        CLOUDY    51  29  42 S28G36    30.08F
MIDDLETON      FAIR      52  28  40 S25G37    30.06F
MONROE         MOSUNNY   52  31  44 S23G33    30.07F
JANESVILLE     SUNNY     52  25  35 S29G40    30.12F
$$

WIZ051-052-058>065-066-070>072-162100-
SOUTHEAST WISCONSIN

CITY           SKY/WX    TMP DP  RH WIND       PRES   REMARKS
MILWAUKEE      PTSUNNY   44  27  51 SE23G35   30.20F
WAUKESHA       MOSUNNY   45  28  53 SE20G28   30.17F
MILWAUKEE/TIMM SUNNY     45  27  49 SE16G25   30.20F
RACINE         SUNNY     43  27  53 SE21G30   30.22F
BURLINGTON     SUNNY     49  26  39 S23G30    30.15F
KENOSHA        SUNNY     46  28  49 SE25G36   30.19F
FOND DU LAC    CLOUDY    46  32  58 SE18G28   30.13F
SHEBOYGAN      PTSUNNY   38  26  62 SE18G36   30.21F WCI  28
WEST BEND      CLOUDY    41  27  56 SE18G24   30.17F
JUNEAU         CLOUDY    48  23  37 SE20G26   30.13F
$$

LSZ147-162-162100-
LAKE SUPERIOR

STATION/POSITION TIME  TEMP    WIND        PRES    WAVE
                       AIR SEA DIR/SP/G            HT/PER
                 (UTC) (F)     (DEG/KT/KT) (MB)    (FT/S)
DEVILS ISLAND    2000   28      60/ 23/ 25 1023.6F
PORT WING        1940   28      40/ 15/ 17 1021.0F
SAXON HARBOR     1940           50/ 12/ 14 1021.0F
$$

LMZ867-665-643>646-162100-
LAKE MICHIGAN

STATION/POSITION TIME  TEMP    WIND        PRES    WAVE
                       AIR SEA DIR/SP/G            HT/PER
                 (UTC) (F)     (DEG/KT/KT) (MB)    (FT/S)
NORTHPORT PIER   1900   30     150/ 11/ 14 1026.8S
SISTER BAY       1909   33     130/ 12/ 16   N/A
SHEBOYGAN LAKESH 2000   36     140/ 23/ 26 1024.1F
PORT WASHINGTON  1940   38     140/ 18/ 23 1023.4F
MILWAUKEE LAKESH 1900   37     140/ 20/ 23   N/A
KENOSHA   LAKESH 2000   40     140/ 21/ 24   N/A
$$

TC  - TEMPERATURE IN CELSIUS
VSB - VISIBILITY IN STATUTE MILES
WCI - WIND CHILL INDEX
HX  - HEAT INDEX




USA.gov is the U.S. government's official web portal to all federal, state and local government web resources and services.